     2              OBSERVATION DATA    GPS                 RINEX VERSION / TYPE
ASHTORIN MIT 08                                             PGM / RUN BY / DATE
                                                            COMMENT
Original Marker Name: ALAM                                  COMMENT
Campaign Name: STRC/NBC 1997                                COMMENT
4-Character Station Name: ALAM                              COMMENT
6-Character Antenna Code: DMRCHT                            COMMENT
Vertical Measurement Point: BCR                             COMMENT
Vertical Offset to Rinex Ref. Point: 0.0349                 COMMENT
Radial Measurement Point: ECF                               COMMENT
Radial Offset to Rinex Ref. Point: 0.1896                   COMMENT
Antenna Height from Field Measurement: 1.3630 m             COMMENT
Additional Antenna Identification Info.:                    COMMENT
Turborogue and Ashtech Choke Ring                           COMMENT
Original XYZ: 0.0000 0.0000 0.0000                          COMMENT
New XYZ position is based on association with SCEC monument COMMENT
E1D0I4P2+0011. Position of that monument is believed to be  COMMENT
valid to within 1 m horizontally; vertical accuracy         COMMENT
should be no worse than 3-times this value.                 COMMENT
                                                            COMMENT
Revised Rinex header created by UCSD GPS archive for        COMMENT
GSAC on 12-Apr-1999 (1999:102) 05:39:19 GMT                 COMMENT
For assistance contact dagnew@ucsd.edu or hjohnson@ucsd.edu COMMENT
                                                            COMMENT
ALAMO 1934                                                  MARKER NAME
                                                            MARKER NUMBER
PTL UNAVCO                                                  OBSERVER / AGENCY
378 ASHTECH Z12-XII3 1E951D0                                REC # / TYPE / VERS
740 DORNE-MARGOL. TYPE T                                    ANT # / TYPE
 -2309367.0000 -4817609.0000  3472162.0000                  APPROX POSITION XYZ
        1.3148        0.0000        0.0000                  ANTENNA: DELTA H/E/N
     1     1     0                                          WAVELENGTH FACT L1/2
     7    L1    L2    C1    P1    P2    D1    D2            # / TYPES OF OBSERV
    30                                                      INTERVAL
  1997     3     4    23    30    0.000000                  TIME OF FIRST OBS
  1997     3     4    23    59   30.000000                  TIME OF LAST OBS
     0                                                      # OF SATELLITES
                                                            END OF HEADER
 97  3  4 23 30  0.0000000  0  3  2  4  7                            0.000000000
     64284.92719     45014.16657  23052641.213    23052640.8695   23052646.6485
        -0.000          -0.000
   -122377.10319    -90037.82659  20787780.761    20787780.4795   20787784.8905
        -0.000          -0.000
     57264.06719     40140.06757  22165908.952    22165908.2015   22165913.1305
        -0.000          -0.000
 97  3  4 23 30 30.0000000  0  6  2 24  4  5  7  9                   0.000000000
     92439.378 9     66952.68247  23057999.379    23057998.4404   23058004.3444
        -0.000          -0.000
   -372006.89219   -271150.86358  22004103.394    22004102.9465   22004108.9865
        -0.000          -0.000
   -177097.117 9   -132676.77049  20777367.399    20777367.5884   20777372.0094
        -0.000          -0.000
   -345434.47419   -250785.58056  23786515.422    23786515.1685   23786520.7305
        -0.000          -0.000
     82158.018 9     59537.95347  22170646.170    22170645.3024   22170650.3304
        -0.000          -0.000
   -196009.45919   -140460.57958  21684296.971    21684296.5245   21684300.8985
        -0.000          -0.000
 97  3  4 23 31  0.0000000  0  6  2 24  4  5  7  9                   0.000774468
    120854.307 9     89094.15147  23063406.175    23063405.6574   23063411.5914
        -0.000          -0.000
   -492232.484 9   -364833.11148  21981225.312    21981224.7654   21981230.7894
        -0.000          -0.000
   -231255.189 9   -174877.84349  20767061.348    20767061.6624   20767066.0824
        -0.000          -0.000
   -465707.960 9   -344505.13946  23763630.159    23763628.0734   23763633.3404
        -0.000          -0.000
    107135.515 9     79000.93247  22175399.115    22175398.3414   22175403.4654
        -0.000          -0.000
   -262386.686 9   -192183.09048  21671665.721    21671665.4184   21671669.7904
        -0.000          -0.000
 97  3  4 23 31 30.0000000  0  6  2 24  4  5  7  9                   0.000751337
    149498.905 9    111414.59047  23068857.229    23068856.5934   23068862.5034
        -0.000          -0.000
   -612117.836 9   -458250.23348  21958411.721    21958411.3184   21958417.3654
        -0.000          -0.000
   -284886.793 9   -216668.68049  20756855.677    20756855.8784   20756860.3244
        -0.000          -0.000
   -586017.742 9   -438252.96646  23740735.263    23740734.0124   23740739.2584
        -0.000          -0.000
    132151.677 9     98494.03647  22180159.519    22180158.7964   22180163.9744
        -0.000          -0.000
   -328286.136 9   -243533.30148  21659125.376    21659125.1404   21659129.5304
        -0.000          -0.000
 97  3  4 23 32  0.0000000  0  6  2 24  4  5  7  9                   0.000728182
    178347.968 9    133894.35047  23074347.144    23074346.4924   23074352.3414
        -0.000          -0.000
   -731697.484 9   -551429.14548  21935656.461    21935656.1214   21935662.1224
        -0.000          -0.000
   -338017.172 9   -258068.95949  20746745.415    20746745.5674   20746749.9714
        -0.000          -0.000
   -706390.449 9   -532049.83146  23717828.971    23717827.9294   23717833.0794
        -0.000          -0.000
    157172.076 9    117990.43347  22184920.724    22184919.9904   22184925.2024
        -0.000          -0.000
   -393743.809 9   -294539.27448  21646669.228    21646668.9634   21646673.3934
        -0.000          -0.000
 97  3  4 23 32 30.0000000  0  6  2 24  4  5  7  9                   0.000704974
    207374.622 9    156512.49247  23079870.736    23079870.0784   23079875.9524
        -0.000          -0.000
   -851006.268 9   -644397.00548  21912952.760    21912952.4484   21912958.3784
        -0.000          -0.000
   -390657.742 9   -299087.56649  20736728.312    20736728.4324   20736732.7924
        -0.000          -0.000
   -826847.450 9   -625912.38046  23694906.637    23694905.6884   23694910.8874
        -0.000          -0.000
    182165.867 9    137466.11547  22189676.947    22189676.1874   22189681.3984
        -0.000          -0.000
   -458775.679 9   -345213.45548  21634294.096    21634293.8304   21634298.2814
        -0.000          -0.000
 97  3  4 23 33  0.0000000  0  6  2 24  4  5  7  9                   0.000681666
    236517.361 9    179221.09346  23085416.430    23085415.8094   23085421.6914
        -0.000          -0.000
   -970102.841 9   -737199.50048  21890289.453    21890289.1584   21890295.0914
        -0.000          -0.000
   -442848.273 9   -339755.48549  20726796.819    20726796.9174   20726801.2874
        -0.000          -0.000
   -947439.358 9   -719880.04946  23671958.639    23671957.7754   23671962.9834
        -0.000          -0.000
    207080.381 9    156880.02247  22194418.102    22194417.3154   22194422.5094
        -0.000          -0.000
   -523427.542 9   -395591.52348  21621991.231    21621990.9674   21621995.4444
        -0.000          -0.000
 97  3  4 23 33 30.0000000  0  6  2 24  4  5  7  9                   0.000658256
    265785.470 9    202027.37546  23090986.032    23090985.3834   23090991.3134
        -0.000          -0.000
  -1088983.546 9   -829833.78948  21867667.176    21867666.9094   21867672.8174
        -0.000          -0.000
   -494569.024 9   -380057.35149  20716954.688    20716954.7814   20716959.1514
        -0.000          -0.000
  -1068157.523 9   -813946.12146  23648986.572    23648985.7884   23648991.0094
        -0.000          -0.000
    231910.996 9    176228.54447  22199143.254    22199142.4734   22199147.6484
        -0.000          -0.000
   -587686.294 9   -445663.26948  21609763.221    21609762.9724   21609767.4274
        -0.000          -0.000
 97  3  4 23 34  0.0000000  0  6  2 24  4  5  7  9                   0.000634751
    295196.476 9    224945.02046  23096582.839    23096582.1494   23096588.1004
        -0.000          -0.000
  -1207648.086 9   -922299.64248  21845086.109    21845085.8224   21845091.7034
        -0.000          -0.000
   -545814.351 9   -419988.75849  20707203.058    20707203.1524   20707207.5044
        -0.000          -0.000
  -1188995.062 9   -908105.19446  23625991.837    23625991.1474   23625996.3614
        -0.000          -0.000
    256674.071 9    195524.44147  22203855.574    22203854.7614   22203859.9054
        -0.000          -0.000
   -651533.921 9   -495414.66448  21597613.473    21597613.2044   21597617.6294
        -0.000          -0.000
 97  3  4 23 34 30.0000000  0  6  2 24  4  5  7  9                   0.000611141
    324736.333 9    247963.06646  23102204.120    23102203.4474   23102209.3294
        -0.000          -0.000
  -1326094.629 9  -1014595.62948  21822546.497    21822546.2164   21822552.0624
        -0.000          -0.000
   -596592.365 9   -459556.01949  20697540.319    20697540.4214   20697544.7724
        -0.000          -0.000
  -1309960.341 9  -1002363.82046  23602972.983    23602972.2724   23602977.4274
        -0.000          -0.000
    281367.059 9    214765.72247  22208554.567    22208553.7584   22208558.8434
        -0.000          -0.000
   -714974.392 9   -544848.79448  21585541.180    21585540.9114   21585545.3364
        -0.000          -0.000
 97  3  4 23 35  0.0000000  0  6  2 24  4  5  7  9                   0.000587440
    354419.807 9    271093.00746  23107852.714    23107852.0374   23107857.9574
        -0.000          -0.000
  -1444300.701 9  -1106704.23848  21800052.634    21800052.3584   21800058.1874
        -0.000          -0.000
   -646897.990 9   -498755.18949  20687967.499    20687967.5984   20687971.9274
        -0.000          -0.000
  -1431049.106 9  -1096718.66046  23579930.580    23579929.8554   23579934.9904
        -0.000          -0.000
    305988.998 9    233951.64347  22213239.998    22213239.2044   22213244.2114
        -0.000          -0.000
   -778004.233 9   -593962.95148  21573547.070    21573546.7944   21573551.2014
        -0.000          -0.000
 97  3  4 23 35 30.0000000  0  6  2 24  4  5  7  9                   0.000563660
    384270.401 9    294353.19346  23113533.147    23113532.4944   23113538.3534
        -0.000          -0.000
  -1562252.596 9  -1198614.78548  21777607.111    21777606.8174   21777612.6694
        -0.000          -0.000
   -696715.318 9   -537573.86849  20678487.588    20678487.6714   20678491.9784
        -0.000          -0.000
  -1552245.788 9  -1191157.59746  23556867.643    23556866.9514   23556871.9974
        -0.000          -0.000
    330558.444 9    253096.65747  22217915.444    22217914.6684   22217919.6654
        -0.000          -0.000
   -840610.336 9   -642746.92348  21561633.568    21561633.2824   21561637.6584
        -0.000          -0.000
 97  3  4 23 36  0.0000000  3  2
ALAM                                                        MARKER NAME
--> THIS IS THE START OF A NEW SITE <---                    COMMENT
 97  3  4 23 36  0.0000000  0  6  2 24  4  5  7  9                   0.000539820
    414312.370 9    317762.49246  23119250.008    23119249.3664   23119255.2254
        -0.000          -0.000
  -1679922.629 9  -1290305.69248  21755215.207    21755214.9184   21755220.8044
        -0.000          -0.000
   -746024.280 9   -575996.41649  20669104.430    20669104.5174   20669108.8104
        -0.000          -0.000
  -1673519.535 9  -1285656.58446  23533790.063    23533789.4264   23533794.4704
        -0.000          -0.000
    355114.300 9    272231.08447  22222588.339    22222587.5434   22222592.5594
        -0.000          -0.000
   -902760.904 9   -691175.93148  21549806.717    21549806.4494   21549810.8094
        -0.000          -0.000
 97  3  4 23 36 30.0000000  0  6  2 24  4  5  7  9                   0.000515940
    444571.116 9    341340.69846  23125008.148    23125007.4414   23125013.3404
        -0.000          -0.000
  -1797265.835 9  -1381741.93948  21732885.582    21732885.2974   21732891.1784
        -0.000          -0.000
   -794799.333 9   -614002.93449  20659822.875    20659822.9524   20659827.2414
        -0.000          -0.000
  -1794843.303 9  -1380194.54946  23510702.898    23510702.2404   23510707.3054
        -0.000          -0.000
    379680.005 9    291373.18447  22227263.026    22227262.2374   22227267.2704
        -0.000          -0.000
   -964423.017 9   -739224.32848  21538072.819    21538072.5434   21538076.9014
        -0.000          -0.000
 97  3  4 23 37  0.0000000  0  6  2 24  4  5  7  9                   0.000492037
    475067.150 9    365103.79646  23130811.327    23130810.6134   23130816.5454
        -0.000          -0.000
  -1914276.218 9  -1472918.84648  21710619.226    21710618.9314   21710624.8224
        -0.000          -0.000
   -843032.201 9   -651586.96549  20650644.524    20650644.5864   20650648.8404
        -0.000          -0.000
  -1916197.110 9  -1474755.92146  23487610.031    23487609.3674   23487614.3304
        -0.000          -0.000
    404260.221 9    310526.62747  22231940.509    22231939.7084   22231944.7404
        -0.000          -0.000
  -1025582.002 9   -786880.68048  21526434.680    21526434.4094   21526438.7814
        -0.000          -0.000
 97  3  4 23 37 30.0000000  0  6  2 24  4  5  7  9                   0.000468156
    505861.581 9    389099.43946  23136671.366    23136670.6464   23136676.5964
        -0.000          -0.000
  -2030890.147 9  -1563786.82248  21688428.308    21688428.0244   21688433.9204
        -0.000          -0.000
   -890669.441 9   -688706.87649  20641579.423    20641579.4824   20641583.7694
        -0.000          -0.000
  -2037508.924 9  -1569284.58146  23464525.128    23464524.4584   23464529.4074
        -0.000          -0.000
    428931.442 9    329750.92047  22236635.276    22236634.5184   22236639.5004
        -0.000          -0.000
  -1086161.418 9   -834085.40748  21514906.816    21514906.5304   21514910.9394
        -0.000          -0.000
 97  3  4 23 38  0.0000000  0  6  2 24  4  5  7  9                   0.000444347
    537020.295 9    413378.93146  23142600.683    23142600.0314   23142605.8994
        -0.000          -0.000
  -2147021.425 9  -1654278.71148  21666329.272    21666328.9834   21666334.8894
        -0.000          -0.000
   -937643.453 9   -725309.99049  20632640.590    20632640.6504   20632644.9274
        -0.000          -0.000
  -2158699.308 9  -1663718.63146  23441463.376    23441462.7334   23441467.6914
        -0.000          -0.000
    453757.855 9    349096.17347  22241359.654    22241358.8784   22241363.8644
        -0.000          -0.000
  -1146082.574 9   -880777.21248  21503504.179    21503503.9244   21503508.3384
        -0.000          -0.000
 97  3  4 23 38 30.0000000  0  6  2 24  4  5  7  9                   0.000420649
    568600.316 9    437986.71046  23148610.241    23148609.5514   23148615.4434
        -0.000          -0.000
  -2262597.050 9  -1744337.61348  21644335.979    21644335.7084   21644341.5824
        -0.000          -0.000
   -983888.079 9   -761344.74449  20623840.530    20623840.5824   20623844.8844
        -0.000          -0.000
  -2279704.854 9  -1758008.63346  23418436.769    23418436.1444   23418441.1264
        -0.000          -0.000
    478805.704 9    368613.97547  22246126.161    22246125.3984   22246130.3434
        -0.000          -0.000
  -1205295.421 9   -926917.08648  21492236.407    21492236.1254   21492240.5404
        -0.000          -0.000
 97  3  4 23 39  0.0000000  0  6  2 24  4  5  7  9                   0.000397120
    600694.958 9    462995.48146  23154717.619    23154716.9834   23154722.9374
        -0.000          -0.000
  -2377511.427 9  -1833881.26848  21622468.512    21622468.2474   21622474.1084
        -0.000          -0.000
  -1029294.289 9   -796726.19449  20615200.001    20615200.0844   20615204.3944
        -0.000          -0.000
  -2400419.643 9  -1852072.09046  23395465.534    23395464.9364   23395469.7704
        -0.000          -0.000
    504183.133 9    388388.59347  22250955.330    22250954.5754   22250959.4724
        -0.000          -0.000
  -1263708.222 9   -972433.55348  21481120.826    21481120.5404   21481124.9544
        -0.000          -0.000
 97  3  4 23 39 30.0000000  0  6  2 24  4  5  7  9                   0.000373831
    633412.346 9    488489.51246  23160943.546    23160942.9524   23160948.9304
        -0.000          -0.000
  -2491643.322 9  -1922815.18748  21600749.897    21600749.6324   21600755.4694
        -0.000          -0.000
  -1073745.348 9   -831363.36949  20606741.245    20606741.3304   20606745.5944
        -0.000          -0.000
  -2520725.488 9  -1945816.86946  23372572.105    23372571.5064   23372576.3284
        -0.000          -0.000
    530019.593 9    408520.89947  22255871.861    22255871.1114   22255875.9674
        -0.000          -0.000
  -1321210.232 9  -1017240.31448  21470178.510    21470178.2654   21470182.6824
        -0.000          -0.000
 97  3  4 23 40  0.0000000  0  6  2 24  4  5  7  9                   0.000350845
    666862.304 9    514554.38746  23167308.926    23167308.3364   23167314.2474
        -0.000          -0.000
  -2604879.260 9  -2011050.95248  21579201.832    21579201.6004   21579207.3984
        -0.000          -0.000
  -1117117.476 9   -865159.81449  20598487.834    20598487.9044   20598492.1484
        -0.000          -0.000
  -2640512.513 9  -2039157.38446  23349777.368    23349776.8164   23349781.6124
        -0.000          -0.000
    556423.020 9    429095.00547  22260896.236    22260895.4934   22260900.3214
        -0.000          -0.000
  -1377711.062 9  -1061266.93148  21459426.824    21459426.5584   21459430.9274
        -0.000          -0.000
 97  3  4 23 40 30.0000000  0  6  2 24  4  5  7  9                   0.000328209
    701138.762 9    541263.28546  23173831.586    23173830.9514   23173836.8974
        -0.000          -0.000
  -2717144.978 9  -2098530.70348  21557838.392    21557838.1394   21557843.9404
        -0.000          -0.000
  -1159313.425 9   -898039.76049  20590458.224    20590458.3124   20590462.5254
        -0.000          -0.000
  -2759700.532 9  -2132031.14446  23327096.639    23327096.0284   23327100.9084
        -0.000          -0.000
    583475.811 9    450175.09047  22266044.234    22266043.5194   22266048.3144
        -0.000          -0.000
  -1433126.975 9  -1104448.15948  21448881.583    21448881.2984   21448885.6614
        -0.000          -0.000
 97  3  4 23 41  0.0000000  0  6  2 24  4  5  7  9                   0.000305956
    736300.598 9    568662.08746  23180522.687    23180522.0494   23180528.0214
        -0.000          -0.000
  -2828395.535 9  -2185219.41348  21536668.096    21536667.8354   21536673.6664
        -0.000          -0.000
  -1200270.410 9   -929954.28349  20582664.423    20582664.5184   20582668.7024
        -0.000          -0.000
  -2878225.615 9  -2224388.31746  23304541.910    23304541.3124   23304546.2584
        -0.000          -0.000
    611222.827 9    471796.13947  22271324.329    22271323.6144   22271328.4244
        -0.000          -0.000
  -1487386.451 9  -1146728.27348  21438556.345    21438556.0764   21438560.4444
        -0.000          -0.000
 97  3  4 23 41 30.0000000  0  6  2 24  4  5  7  9                   0.000284051
    772306.464 9    596718.58146  23187374.400    23187373.7554   23187379.6804
        -0.000          -0.000
  -2938681.754 9  -2271156.68748  21515681.338    21515681.0944   21515686.8914
        -0.000          -0.000
  -1240034.840 9   -960939.53649  20575097.483    20575097.5864   20575101.8024
        -0.000          -0.000
  -2996146.298 9  -2316274.51246  23282102.201    23282101.6374   23282106.6364
        -0.000          -0.000
    639601.684 9    493909.53447  22276724.630    22276723.9154   22276728.7684
        -0.000          -0.000
  -1540518.587 9  -1188129.93948  21428445.642    21428445.3664   21428449.7434
        -0.000          -0.000
 97  3  4 23 42  0.0000000  0  6  2 24  4  5  7  9                   0.000262395
    809011.296 9    625319.71146  23194359.187    23194358.4994   23194364.4104
        -0.000          -0.000
  -3048152.589 9  -2356458.60448  21494849.761    21494849.5154   21494855.2714
        -0.000          -0.000
  -1278752.988 9   -991109.50449  20567729.646    20567729.7574   20567733.9464
        -0.000          -0.000
  -3113618.587 9  -2407811.32846  23259747.887    23259747.3824   23259752.3754
        -0.000          -0.000
    668457.216 9    516394.35047  22282215.695    22282214.9344   22282219.8894
        -0.000          -0.000
  -1592664.610 9  -1228763.20048  21418522.623    21418522.3554   21418526.7224
        -0.000          -0.000
 97  3  4 23 42 30.0000000  0  6  2 24  4  5  7  9                   0.000240884
    846244.177 9    654332.31846  23201444.416    23201443.7554   23201449.6414
        -0.000          -0.000
  -3156984.021 9  -2441262.28248  21474139.822    21474139.5634   21474145.3554
        -0.000          -0.000
  -1316607.205 9  -1020606.27949  20560526.207    20560526.3044   20560530.5194
        -0.000          -0.000
  -3230807.608 9  -2499127.41146  23237447.568    23237447.0314   23237452.0264
        -0.000          -0.000
    697617.179 9    539116.39447  22287764.630    22287763.8624   22287768.8754
        -0.000          -0.000
  -1643978.653 9  -1268748.17248  21408757.889    21408757.6264   21408761.9974
        -0.000          -0.000
 97  3  4 23 43  0.0000000  0  6  2 24  4  5  7  9                   0.000219415
    883819.422 9    683611.70446  23208594.867    23208594.1754   23208600.0514
        -0.000          -0.000
  -3265342.072 9  -2525697.09348  21453519.950    21453519.7174   21453525.5074
        -0.000          -0.000
  -1353788.758 9  -1049578.90549  20553450.798    20553450.9024   20553455.0924
        -0.000          -0.000
  -3347884.546 9  -2590356.15846  23215168.657    23215168.0834   23215173.0524
        -0.000          -0.000
    726917.275 9    561947.61847  22293340.283    22293339.5024   22293344.5704
        -0.000          -0.000
  -1694638.793 9  -1308223.60948  21399117.611    21399117.3594   21399121.7264
        -0.000          -0.000
 97  3  4 23 43 30.0000000  0  6  2 24  4  5  7  9                   0.000197886
    921571.323 9    713028.72046  23215778.846    23215778.1314   23215784.1124
        -0.000          -0.000
  -3373394.475 9  -2609893.73848  21432958.287    21432958.0524   21432963.7824
        -0.000          -0.000
  -1390489.927 9  -1078177.20249  20546466.820    20546466.9174   20546471.0944
        -0.000          -0.000
  -3465032.260 9  -2681640.06646  23192876.211    23192875.5964   23192880.5634
        -0.000          -0.000
    756178.251 9    584748.37247  22298908.478    22298907.7074   22298912.7814
        -0.000          -0.000
  -1744829.007 9  -1347332.86648  21389566.793    21389566.5314   21389570.8714
        -0.000          -0.000
 97  3  4 23 44  0.0000000  0  6  2 24  4  5  7  9                   0.000176229
    959368.333 9    742480.91846  23222971.457    23222970.7524   23222976.7014
        -0.000          -0.000
  -3481263.254 9  -2693947.30648  21412431.562    21412431.3024   21412436.9754
        -0.000          -0.000
  -1426848.029 9  -1106508.17649  20539548.144    20539548.2374   20539552.3874
        -0.000          -0.000
  -3582366.588 9  -2773069.37746  23170548.281    23170547.6644   23170552.6134
        -0.000          -0.000
    785268.736 9    607416.27347  22304444.276    22304443.5054   22304448.5824
        -0.000          -0.000
  -1794690.637 9  -1386186.08548  21380078.462    21380078.1804   21380082.5764
        -0.000          -0.000
 97  3  4 23 44 30.0000000  0  6  2 24  4  5  7  9                   0.000154407
    997136.297 9    771910.46046  23230158.548    23230157.8374   23230163.7584
        -0.000          -0.000
  -3588996.223 9  -2777895.04248  21391930.698    21391930.3954   21391936.0574
        -0.000          -0.000
  -1462937.664 9  -1134629.95849  20532680.511    20532680.5914   20532684.7524
        -0.000          -0.000
  -3699949.228 9  -2864692.18147  23148173.017    23148172.3844   23148177.4344
        -0.000          -0.000
    814112.650 9    629892.04047  22309933.104    22309932.3454   22309937.4054
        -0.000          -0.000
  -1844292.033 9  -1424836.53148  21370639.596    21370639.3344   21370643.7204
        -0.000          -0.000
 97  3  4 23 45  0.0000000  0  6  2 24  4  5  7  9                   0.000132382
   1034822.203 9    801276.07246  23237329.961    23237329.2324   23237335.2134
        -0.000          -0.000
  -3696628.731 9  -2861764.49448  21371448.854    21371448.5544   21371454.2374
        -0.000          -0.000
  -1498801.278 9  -1162575.61449  20525855.907    20525855.9764   20525860.1284
        -0.000          -0.000
  -3817830.147 9  -2956547.41047  23125740.965    23125740.2934   23125745.4324
        -0.000          -0.000
    842660.720 9    652137.28147  22315365.622    22315364.8454   22315369.9434
        -0.000          -0.000
  -1893681.389 9  -1463321.73848  21361241.156    21361240.8814   21361245.2434
        -0.000          -0.000
 97  3  4 23 45 30.0000000  0  6  2 24  4  5  7  9                   0.000110143
   1072415.009 9    830569.13246  23244483.592    23244482.8894   23244488.9544
        -0.000          -0.000
  -3804173.765 9  -2945565.78848  21350983.673    21350983.3824   21350989.0834
        -0.000          -0.000
  -1534441.888 9  -1190347.50549  20519073.715    20519073.8014   20519077.9304
        -0.000          -0.000
  -3936018.123 9  -3048641.89947  23103250.469    23103249.8334   23103255.0544
        -0.000          -0.000
    870896.010 9    674138.79247  22320738.627    22320737.8754   22320742.9244
        -0.000          -0.000
  -1942871.874 9  -1501651.99248  21351880.491    21351880.2014   21351884.5934
        -0.000          -0.000
 97  3  4 23 46  0.0000000  0  6  2 24  4  5  7  9                   0.000087674
   1109899.215 9    859777.56146  23251616.573    23251615.8914   23251621.9534
        -0.000          -0.000
  -3911641.504 9  -3029306.85148  21330533.248    21330532.9494   21330538.6394
        -0.000          -0.000
  -1569857.406 9  -1217943.99749  20512334.345    20512334.4164   20512338.5414
        -0.000          -0.000
  -4054517.275 9  -3140978.86747  23080700.808    23080700.2244   23080705.3574
        -0.000          -0.000
    898823.883 9    695900.76947  22326053.144    22326052.3964   22326057.4304
        -0.000          -0.000
  -1991878.487 9  -1539838.96548  21342554.852    21342554.5874   21342558.9894
        -0.000          -0.000
 97  3  4 23 46 30.0000000  0  7  2 24  4  5  7  9 16                0.000064929
   1147299.447 9    888920.55646  23258733.623    23258732.8844   23258739.0054
        -0.000          -0.000
  -4019025.166 9  -3112982.40148  21310098.794    21310098.4964   21310104.1584
        -0.000          -0.000
  -1605017.604 9  -1245341.54149  20505643.577    20505643.6684   20505647.7894
        -0.000          -0.000
  -4173310.013 9  -3233544.61047  23058095.348    23058094.7734   23058099.8234
        -0.000          -0.000
    926477.668 9    717449.15547  22331315.519    22331314.7534   22331319.8364
        -0.000          -0.000
  -2040678.456 9  -1577864.91548  21333268.546    21333268.2754   21333272.6604
        -0.000          -0.000
  -1743680.46118  -1342867.72355  24688995.595    24688994.7045   24689001.0545
        -0.000          -0.000
 97  3  4 23 47  0.0000000  0  7  2 24  4  5  7  9 16                0.000041994
   1184653.202 9    918027.36146  23265841.803    23265841.1034   23265847.1154
        -0.000          -0.000
  -4126325.017 9  -3196592.64648  21289680.299    21289680.0214   21289685.6804
        -0.000          -0.000
  -1639884.985 9  -1272510.91449  20499008.540    20499008.6224   20499012.7394
        -0.000          -0.000
  -4292369.631 9  -3326318.30547  23035439.117    23035438.5084   23035443.5214
        -0.000          -0.000
    953888.909 9    738808.56147  22336531.749    22336530.9714   22336536.0614
        -0.000          -0.000
  -2089252.447 9  -1615714.78448  21324025.272    21324024.9854   21324029.3474
        -0.000          -0.000
  -1800670.575 8  -1387275.55945  24678150.850    24678149.9724   24678156.1954
        -0.000          -0.000
 97  3  4 23 47 30.0000000  0  7  2 24  4  5  7  9 16                0.000018870
   1221977.772 9    947111.39746  23272944.459    23272943.7464   23272949.7644
        -0.000          -0.000
  -4233531.147 9  -3280129.86048  21269279.638    21269279.3544   21269285.0184
        -0.000          -0.000
  -1674444.396 9  -1299440.31149  20492432.081    20492432.1554   20492436.2594
        -0.000          -0.000
  -4411690.848 9  -3419295.85947  23012733.071    23012732.4874   23012737.4144
        -0.000          -0.000
    981073.289 9    759991.17947  22341704.800    22341704.0204   22341709.1284
        -0.000          -0.000
  -2137594.175 9  -1653383.66748  21314826.183    21314825.8834   21314830.2564
        -0.000          -0.000
  -1857455.887 8  -1431523.79245  24667344.680    24667343.9844   24667350.3814
        -0.000          -0.000
 97  3  4 23 48  0.0000000  0  7  2 24  4  5  7  9 16               -0.000004422
   1259316.418 9    976206.40246  23280049.729    23280049.0274   23280055.1094
        -0.000          -0.000
  -4340598.632 9  -3363559.04148  21248905.351    21248905.0594   21248910.7184
        -0.000          -0.000
  -1708658.487 9  -1326100.62849  20485921.332    20485921.4124   20485925.5074
        -0.000          -0.000
  -4531243.017 9  -3512453.36047  22989983.058    22989982.4474   22989987.3584
        -0.000          -0.000
   1008066.174 9    781024.59047  22346841.428    22346840.6444   22346845.7414
        -0.000          -0.000
  -2185645.615 9  -1690826.35148  21305682.297    21305682.0134   21305686.3814
        -0.000          -0.000
  -1914008.793 8  -1475590.94445  24656582.808    24656582.1244   24656588.7224
        -0.000          -0.000
 97  3  4 23 48 29.9990000  0  7  2 24  4  5  7  9 16               -0.000027864
   1296701.354 9   1005337.48546  23287163.886    23287163.1134   23287169.3854
        -0.000          -0.000
  -4447480.381 9  -3446843.49548  21228566.413    21228566.1294   21228571.7524
        -0.000          -0.000
  -1742485.350 9  -1352459.20749  20479484.301    20479484.3784   20479488.4754
        -0.000          -0.000
  -4650982.669 9  -3605756.96447  22967197.306    22967196.6904   22967201.6114
        -0.000          -0.000
   1034887.794 9    801924.54547  22351945.467    22351944.6804   22351949.7184
        -0.000          -0.000
  -2233349.697 9  -1727998.36348  21296604.477    21296604.1984   21296608.5654
        -0.000          -0.000
  -1970317.046 8  -1519467.47545  24645867.799    24645866.9324   24645873.4704
        -0.000          -0.000
 97  3  4 23 48 59.9990000  0  7  2 24  4  5  7  9 16               -0.000051437
   1334172.048 9   1034535.41146  23294294.369    23294293.5964   23294299.7944
        -0.000          -0.000
  -4554122.900 9  -3529941.53348  21208273.004    21208272.7284   21208278.3384
        -0.000          -0.000
  -1775887.062 9  -1378486.50349  20473128.172    20473128.2484   20473132.3704
        -0.000          -0.000
  -4770869.434 9  -3699175.19347  22944383.610    22944382.9754   22944387.9104
        -0.000          -0.000
   1061579.171 9    822723.02047  22357024.734    22357023.9344   22357028.9404
        -0.000          -0.000
  -2280654.885 9  -1764859.55048  21287602.634    21287602.3604   21287606.7014
        -0.000          -0.000
  -2026373.762 8  -1563147.99545  24635200.348    24635199.3674   24635206.2464
        -0.000          -0.000
 97  3  4 23 49 29.9990000  0  7  2 24  4  5  7  9 16               -0.000075116
   1371756.073 9   1063821.62646  23301446.475    23301445.7054   23301451.8944
        -0.000          -0.000
  -4660453.730 9  -3612796.70048  21188038.880    21188038.6064   21188044.2214
        -0.000          -0.000
  -1808838.282 9  -1404162.76349  20466857.785    20466857.8494   20466861.9654
        -0.000          -0.000
  -4890864.967 9  -3792678.18347  22921549.175    22921548.5224   22921553.5114
        -0.000          -0.000
   1088174.691 9    843446.79747  22362085.688    22362084.8914   22362089.8434
        -0.000          -0.000
  -2327504.998 9  -1801366.13348  21278687.397    21278687.1124   21278691.4504
        -0.000          -0.000
  -2082160.589 8  -1606618.19745  24624584.406    24624583.4354   24624590.2994
        -0.000          -0.000
 97  3  4 23 49 59.9990000  0  7  2 24  4  5  7  9 16               -0.000098856
   1409511.511 9   1093241.40446  23308631.008    23308630.3614   23308636.6174
        -0.000          -0.000
  -4766412.891 9  -3695362.25448  21167875.521    21167875.2354   21167880.8864
        -0.000          -0.000
  -1841288.998 9  -1429449.02149  20460682.601    20460682.6844   20460686.7864
        -0.000          -0.000
  -5010900.188 9  -3886212.08447  22898707.184    22898706.5064   22898711.5184
        -0.000          -0.000
   1114711.732 9    864125.00847  22367135.505    22367134.7454   22367139.6254
        -0.000          -0.000
  -2373841.376 9  -1837472.39848  21269869.900    21269869.6264   21269873.9784
        -0.000          -0.000
  -2137632.041 9  -1649842.67045  24614028.573    24614027.8124   24614034.4854
        -0.000          -0.000
 97  3  4 23 50 29.9990000  0  7  2 24  4  5  7  9 16               -0.000122620
   1447479.715 9   1122826.98546  23315856.159    23315855.5294   23315861.7814
        -0.000          -0.000
  -4871945.020 9  -3777595.05548  21147793.398    21147793.1184   21147798.7714
        -0.000          -0.000
  -1873200.282 9  -1454314.94249  20454610.103    20454610.1684   20454614.2854
        -0.000          -0.000
  -5130909.617 9  -3979725.91247  22875870.089    22875869.4854   22875874.4154
        -0.000          -0.000
   1141243.572 9    884799.16847  22372184.378    22372183.6094   22372188.5054
        -0.000          -0.000
  -2419641.264 9  -1873160.62448  21261154.495    21261154.2194   21261158.5714
        -0.000          -0.000
  -2192738.258 8  -1692782.55645  24603542.406    24603541.5724   24603548.0934
        -0.000          -0.000
 97  3  4 23 50 59.9990000  0  7  2 24  4  5  7  9 16               -0.000146376
   1485697.221 9   1152606.82346  23323128.824    23323128.2444   23323134.4804
        -0.000          -0.000
  -4977007.414 9  -3859461.82348  21127800.678    21127800.3984   21127806.0484
        -0.000          -0.000
  -1904556.128 9  -1478748.05849  20448643.279    20448643.3594   20448647.4874
        -0.000          -0.000
  -5250863.988 9  -4073196.82047  22853043.552    22853042.9284   22853047.8504
        -0.000          -0.000
   1167818.262 9    905506.71147  22377241.488    22377240.6794   22377245.5474
        -0.000          -0.000
  -2464891.450 9  -1908420.51248  21252543.627    21252543.3604   21252547.7164
        -0.000          -0.000
  -2247416.417 8  -1735388.88445  24593137.316    24593136.6364   24593143.1614
        -0.000          -0.000
 97  3  4 23 51 29.9990000  0  7  2 24  4  5  7  9 16               -0.000170082
   1524223.624 9   1182627.35946  23330460.214    23330459.6294   23330465.8324
        -0.000          -0.000
  -5081554.918 9  -3940927.37648  21107905.935    21107905.6714   21107911.3024
        -0.000          -0.000
  -1935314.253 9  -1502715.41449  20442790.186    20442790.2814   20442794.3644
        -0.000          -0.000
  -5370716.360 9  -4166588.24147  22830236.386    22830235.7574   22830240.6664
        -0.000          -0.000
   1194476.683 9    926279.50347  22382314.459    22382313.6664   22382318.4744
        -0.000          -0.000
  -2509564.192 9  -1943230.44048  21244042.706    21244042.4464   21244046.7834
        -0.000          -0.000
  -2301596.607 8  -1777607.17045  24582826.924    24582826.2644   24582832.8634
        -0.000          -0.000
 97  3  4 23 51 59.9990000  0  7  2 24  4  5  7  9 16               -0.000193717
   1563100.271 9   1212920.78946  23337858.182    23337857.5974   23337863.9244
        -0.000          -0.000
  -5185562.425 9  -4021972.15048  21088113.949    21088113.6934   21088119.3034
        -0.000          -0.000
  -1965428.360 9  -1526180.93849  20437059.676    20437059.7684   20437063.8644
        -0.000          -0.000
  -5490421.276 9  -4259864.77247  22807457.307    22807456.6664   22807461.5984
        -0.000          -0.000
   1221263.976 9    947152.71847  22387411.897    22387411.1084   22387415.9494
        -0.000          -0.000
  -2553637.656 9  -1977573.39848  21235655.802    21235655.5324   21235659.8894
        -0.000          -0.000
  -2355232.255 8  -1819401.14245  24572620.224    24572619.6594   24572626.0644
        -0.000          -0.000
 97  3  4 23 52 29.9990000  0  7  2 24  4  5  7  9 16               -0.000217275
   1602353.757 9   1243507.88346  23345327.849    23345327.2364   23345333.5824
        -0.000          -0.000
  -5289002.954 9  -4102575.12648  21068429.834    21068429.5804   21068435.1964
        -0.000          -0.000
  -1994862.860 9  -1549116.90449  20431458.468    20431458.5654   20431462.6474
        -0.000          -0.000
  -5609958.514 9  -4353010.64747  22784710.082    22784709.5034   22784714.3594
        -0.000          -0.000
   1248223.508 9    968160.13747  22392542.103    22392541.3064   22392546.1774
        -0.000          -0.000
  -2597082.109 9  -2011426.22548  21227388.546    21227388.3054   21227392.7064
        -0.000          -0.000
  -2408290.692 8  -1860745.36445  24562523.656    24562523.1194   24562529.1384
        -0.000          -0.000
 97  3  4 23 52 59.9990000  0  7  2 24  4  5  7  9 16               -0.000240739
   1642037.042 9   1274429.88846  23352879.487    23352878.8784   23352885.1254
        -0.000          -0.000
  -5391845.696 9  -4182712.28648  21048859.506    21048859.2484   21048864.8454
        -0.000          -0.000
  -2023560.767 9  -1571478.89649  20425997.415    20425997.5164   20426001.5934
        -0.000          -0.000
  -5729296.530 9  -4446001.28147  22762000.804    22762000.2264   22762005.0824
        -0.000          -0.000
   1275385.100 9    989325.01347  22397710.718    22397709.9294   22397714.8714
        -0.000          -0.000
  -2639845.022 9  -2044747.97848  21219251.025    21219250.7884   21219255.1954
        -0.000          -0.000
  -2460735.857 8  -1901611.69845  24552543.573    24552543.0784   24552549.0594
        -0.000          -0.000
 97  3  4 23 53 29.9990000  0  7  2 24  4  5  7  9 16               -0.000264097
   1682184.204 9   1305713.35646  23360519.273    23360518.7404   23360525.0034
        -0.000          -0.000
  -5494063.058 9  -4262362.14748  21029408.181    21029407.9144   21029413.5084
        -0.000          -0.000
  -2051457.380 9  -1593216.50649  20420688.868    20420688.9814   20420693.0784
        -0.000          -0.000
  -5848386.575 9  -4538798.68047  22739338.667    22739338.1244   22739342.9654
        -0.000          -0.000
   1302775.181 9   1010667.91947  22402922.833    22402922.0704   22402927.0814
        -0.000          -0.000
  -2681864.177 9  -2077490.18348  21211255.081    21211254.8444   21211259.2094
        -0.000          -0.000
  -2512538.957 8  -1941977.68945  24542685.783    24542685.3024   24542691.3964
        -0.000          -0.000
 97  3  4 23 53 59.9990000  0  7  2 24  4  5  7  9 16               -0.000287322
   1722832.224 9   1337387.08446  23368254.336    23368253.7544   23368260.1084
        -0.000          -0.000
  -5595610.837 9  -4341490.25848  21010084.243    21010084.0024   21010089.5804
        -0.000          -0.000
  -2078499.855 9  -1614288.55549  20415542.855    20415542.9644   20415547.0514
        -0.000          -0.000
  -5967174.765 9  -4631360.88447  22716733.998    22716733.4524   22716738.3014
        -0.000          -0.000
   1330439.641 9   1032224.63247  22408187.206    22408186.4364   22408191.4894
        -0.000          -0.000
  -2723067.237 9  -2109596.46848  21203414.417    21203414.1424   21203418.5514
        -0.000          -0.000
  -2563657.424 8  -1981810.22545  24532958.371    24532957.8064   24532964.0704
        -0.000          -0.000
 97  3  4 23 54 29.9990000  0  7  2 24  4  5  7  9 16               -0.000310388
   1764025.115 9   1369485.38746  23376093.057    23376092.4484   23376098.9944
        -0.000          -0.000
  -5696449.094 9  -4420065.49348  20990895.383    20990895.1464   20990900.7214
        -0.000          -0.000
  -2104641.547 9  -1634658.69449  20410568.274    20410568.3884   20410572.4674
        -0.000          -0.000
  -6085615.046 9  -4723651.98047  22694195.558    22694194.9964   22694199.8584
        -0.000          -0.000
   1358413.586 9   1054022.50847  22413510.511    22413509.7204   22413514.7594
        -0.000          -0.000
  -2763391.126 9  -2141017.68848  21195740.999    21195740.7744   21195745.1854
        -0.000          -0.000
  -2614049.538 8  -2021076.75745  24523369.241    24523368.6644   24523374.6964
        -0.000          -0.000
 97  3  4 23 54 59.9990000  0  7  2 24  4  5  7  9 16               -0.000333235
   1805828.469 9   1402059.41046  23384048.082    23384047.5114   23384053.8854
        -0.000          -0.000
  -5796507.446 9  -4498033.00548  20971854.919    20971854.6674   20971860.2434
        -0.000          -0.000
  -2129827.470 9  -1654284.07449  20405775.561    20405775.6754   20405779.7424
        -0.000          -0.000
  -6203627.457 9  -4815609.66747  22671738.474    22671737.9324   22671742.8384
        -0.000          -0.000
   1386762.237 9   1076112.36347  22418905.065    22418904.3064   22418909.3024
        -0.000          -0.000
  -2802761.862 9  -2171696.18748  21188249.013    21188248.7914   21188253.2074
        -0.000          -0.000
  -2663638.152 8  -2059717.20045  24513933.049    24513932.5774   24513938.4334
        -0.000          -0.000
 97  3  4 23 55 29.9990000  0  7  2 24  4  5  7  9 16               -0.000355839
   1848262.904 9   1435125.13646  23392123.098    23392122.5604   23392128.9964
        -0.000          -0.000
  -5895747.266 9  -4575362.70348  20952970.168    20952969.9214   20952975.5124
        -0.000          -0.000
  -2154042.487 9  -1673152.90649  20401167.609    20401167.7154   20401171.7654
        -0.000          -0.000
  -6321178.034 9  -4907207.49347  22649369.338    22649368.8484   22649373.6764
        -0.000          -0.000
   1415529.745 9   1098528.59747  22424379.316    22424378.5864   22424383.5724
        -0.000          -0.000
  -2841144.070 9  -2201604.40248  21180945.163    21180944.9174   21180949.3274
        -0.000          -0.000
  -2712381.068 8  -2097698.66045  24504657.510    24504656.9794   24504662.8214
        -0.000          -0.000
 97  3  4 23 55 59.9990000  0  7  2 24  4  5  7  9 16               -0.000378154
   1891396.131 9   1468735.39346  23400331.116    23400330.5484   23400336.9804
        -0.000          -0.000
  -5994098.326 9  -4651999.86148  20934254.520    20934254.2884   20934259.8694
        -0.000          -0.000
  -2177242.593 9  -1691230.89949  20396752.761    20396752.8824   20396756.9214
        -0.000          -0.000
  -6438207.673 9  -4998399.38747  22627099.353    22627098.7964   22627103.6234
        -0.000          -0.000
   1444791.948 9   1121330.31647  22429947.764    22429947.0414   22429952.0164
        -0.000          -0.000
  -2878487.625 9  -2230703.28048  21173838.904    21173838.6774   21173843.0984
        -0.000          -0.000
  -2760215.897 8  -2134972.49845  24495554.539    24495554.1014   24495560.1914
        -0.000          -0.000
 97  3  4 23 56 29.9990000  0  7  2 24  4  5  7  9 16               -0.000400138
   1935301.261 9   1502947.14046  23408685.991    23408685.4744   23408691.8714
        -0.000          -0.000
  -6091477.520 9  -4727879.72448  20915723.844    20915723.6064   20915729.1984
        -0.000          -0.000
  -2199360.643 9  -1708465.73149  20392543.804    20392543.9264   20392547.9704
        -0.000          -0.000
  -6554650.246 9  -5089133.83747  22604941.043    22604940.4754   22604945.3204
        -0.000          -0.000
   1474630.039 9   1144580.77347  22435625.790    22435625.0704   22435630.0424
        -0.000          -0.000
  -2914740.942 9  -2258952.62348  21166940.099    21166939.8824   21166944.3134
        -0.000          -0.000
  -2807072.599 8  -2171484.16545  24486637.823    24486637.2244   24486643.6374
        -0.000          -0.000
 97  3  4 23 56 59.9990000  0  7  2 24  4  5  7  9 16               -0.000421750
   1980039.454 9   1537808.06146  23417199.503    23417198.9904   23417205.1544
        -0.000          -0.000
  -6187817.211 9  -4802949.58648  20897390.945    20897390.7384   20897396.3264
        -0.000          -0.000
  -2220342.503 9  -1724815.21949  20388551.088    20388551.2104   20388555.2524
        -0.000          -0.000
  -6670439.434 9  -5179359.16347  22582907.059    22582906.5594   22582911.3474
        -0.000          -0.000
   1505109.216 9   1168330.77147  22441425.744    22441425.0644   22441430.0474
        -0.000          -0.000
  -2949861.632 9  -2286319.39648  21160256.887    21160256.6594   21160261.0584
        -0.000          -0.000
  -2852887.395 8  -2207183.98345  24477919.596    24477919.0494   24477925.4554
        -0.000          -0.000
 97  3  4 23 57 29.9990000  0  7  2 24  4  5  7  9 16               -0.000442977
   2025649.791 9   1573348.53046  23425878.909    23425878.3814   23425884.5994
        -0.000          -0.000
  -6283077.877 9  -4877178.64548  20879263.439    20879263.2474   20879268.8114
        -0.000          -0.000
  -2240133.273 9  -1740236.58649  20384784.974    20384785.1074   20384789.1734
        -0.000          -0.000
  -6785536.669 9  -5269045.28847  22561004.801    22561004.2724   22561009.0784
        -0.000          -0.000
   1536268.085 9   1192610.39847  22447355.047    22447354.4004   22447359.4424
        -0.000          -0.000
  -2983817.992 9  -2312778.89748  21153795.184    21153794.9534   21153799.3654
        -0.000          -0.000
  -2897626.603 8  -2242045.66645  24469405.947    24469405.4934   24469411.7834
        -0.000          -0.000
 97  3  4 23 57 59.9990000  0  7  2 24  4  5  7  9 16               -0.000463778
   2072204.460 9   1609624.85346  23434738.092    23434737.5094   23434743.7324
        -0.000          -0.000
  -6377188.640 9  -4950511.68148  20861354.740    20861354.5454   20861360.1244
        -0.000          -0.000
  -2258662.800 9  -1754675.17049  20381258.920    20381259.0484   20381263.1224
        -0.000          -0.000
  -6899868.139 9  -5358134.73047  22539248.170    22539247.6744   22539252.4724
        -0.000          -0.000
   1568161.948 9   1217462.75147  22453424.235    22453423.5884   22453428.6544
        -0.000          -0.000
  -3016547.734 9  -2338282.59548  21147566.860    21147566.6644   21147571.0964
        -0.000          -0.000
  -2941237.814 8  -2276028.38145  24461106.893    24461106.4794   24461112.9574
        -0.000          -0.000
 97  3  4 23 58 29.9990000  0  7  2 24  4  5  7  9 16               -0.000484124
   2119739.552 9   1646665.13446  23443783.801    23443783.1584   23443789.4454
        -0.000          -0.000
  -6470117.888 9  -5022924.05648  20843670.834    20843670.6474   20843676.2444
        -0.000          -0.000
  -2275906.914 9  -1768112.13049  20377977.445    20377977.5904   20377981.6584
        -0.000          -0.000
  -7013395.879 9  -5446597.87047  22517644.527    22517644.0194   22517648.8514
        -0.000          -0.000
   1600810.961 9   1242903.52847  22459637.124    22459636.4874   22459641.5914
        -0.000          -0.000
  -3048023.925 9  -2362809.49348  21141577.174    21141576.9714   21141581.4024
        -0.000          -0.000
  -2983690.038 8  -2309108.01445  24453028.434    24453027.9314   24453034.4584
        -0.000          -0.000
 97  3  4 23 58 59.9990000  0  7  2 24  4  5  7  9 16               -0.000503989
   2168289.775 9   1684496.40146  23453022.511    23453021.9414   23453028.3074
        -0.000          -0.000
  -6561821.710 9  -5094381.54548  20826220.129    20826219.9284   20826225.5314
        -0.000          -0.000
  -2291814.641 9  -1780507.75249  20374950.279    20374950.4554   20374954.5274
        -0.000          -0.000
  -7126065.979 9  -5534392.73147  22496204.103    22496203.5924   22496208.4894
        -0.000          -0.000
   1634250.184 9   1268960.05447  22466000.375    22465999.7524   22466004.8614
        -0.000          -0.000
  -3078199.231 9  -2386322.72048  21135834.983    21135834.8064   21135839.2304
        -0.000          -0.000
  -3024931.797 8  -2341244.40345  24445180.218    24445179.9444   24445186.2714
        -0.000          -0.000
